GW5289 Weather Reports


time (UTC)temp
C
wind
direction
speed
KPH
gust
KPH
rain 1hr
cm
rain 24hr
cm
rain mn
cm
humidity
%
barometer
mb
20260502183004 14 44 4.8 8.0 0.00 0.00 0.00 49 1012.6
20260502181507 14 341 3.2 11.3 0.00 0.00 0.00 52 1012.8
20260502163018 13 295 4.8 11.3 0.00 0.00 0.00 56 1013.9
20260502161520 13 344 3.2 9.7 0.00 0.00 0.00 56 1013.9
20260502151521 13 6 3.2 14.5 0.00 0.00 0.00 59 1014.0
20260502123010 11 7 1.6 6.4 0.00 0.00 0.00 78 1013.4
20260502121517 11 332 3.2 8.0 0.00 0.00 0.00 78 1013.4
20260502114522 11 356 1.6 8.0 0.00 0.00 0.00 80 1013.5
20260502113024 11 53 0.0 3.2 0.00 0.00 0.00 81 1013.6
20260502111513 11 359 0.0 4.8 0.00 0.00 0.00 82 1013.6
20260502110018 11 22 0.0 3.2 0.00 0.00 0.00 86 1013.4
20260502104519 10 343 0.0 3.2 0.00 0.00 0.00 90 1013.1
20260502103025 10 68 0.0 1.6 0.00 0.00 0.00 92 1012.7
20260502101534 10 352 0.0 0.0 0.00 0.00 0.00 92 1012.7
20260502091525 10 352 0.0 3.2 0.00 0.00 0.00 91 1012.5
20260502071504 10 353 0.0 3.2 0.00 0.00 0.00 90 1012.3
20260502070008 10 255 0.0 3.2 0.00 0.00 0.00 89 1011.8
20260502064524 10 230 0.0 3.2 0.00 0.00 0.00 90 1011.7
20260502063002 10 230 0.0 3.2 0.00 0.00 0.00 90 1011.9
20260502061504 10 230 0.0 3.2 0.00 0.00 0.00 89 1012.1
20260502060006 10 226 0.0 3.2 0.00 0.00 0.00 88 1012.4
20260502054510 11 226 0.0 0.0 0.00 0.00 0.00 87 1012.6
20260502053013 11 226 0.0 3.2 0.00 0.00 0.00 85 1012.7
20260502051504 11 226 0.0 3.2 0.00 0.00 0.00 84 1013.0
20260502050014 12 234 0.0 3.2 0.00 0.00 0.00 83 1013.0
20260502044509 12 219 0.0 3.2 0.00 0.00 0.00 82 1013.2
20260502043011 12 214 0.0 4.8 0.00 0.00 0.00 82 1013.3
20260502041515 12 197 0.0 8.0 0.00 0.00 0.00 81 1013.3
20260502040004 12 222 1.6 6.4 0.00 0.00 0.00 81 1013.3
20260502034507 12 192 0.0 6.4 0.00 0.00 0.00 79 1013.5
20260502033007 12 259 0.0 6.4 0.00 0.00 0.00 78 1013.3
20260502031513 12 228 1.6 8.0 0.00 0.00 0.00 78 1012.9
20260502030015 13 235 1.6 12.9 0.00 0.00 0.00 76 1012.8
20260502024504 13 181 3.2 12.9 0.00 0.00 0.00 76 1012.8
20260502023006 12 212 1.6 8.0 0.00 0.00 0.00 76 1013.0
20260502021513 12 192 0.0 3.2 0.00 0.00 0.00 77 1013.0
20260502020019 11 197 0.0 3.2 0.00 0.00 0.00 80 1012.9
20260502014537 11 159 0.0 1.6 0.00 0.00 0.00 79 1012.9
20260502013004 11 159 0.0 3.2 0.00 0.00 0.00 78 1012.9
20260502011510 11 159 0.0 3.2 0.00 0.00 0.00 76 1012.7
20260502010015 12 159 0.0 3.2 0.00 0.00 0.00 73 1012.4
20260502004523 12 149 0.0 3.2 0.00 0.00 0.00 71 1011.9
20260502003004 13 115 0.0 4.8 0.00 0.00 0.00 70 1011.9
20260502001506 13 153 0.0 4.8 0.00 0.00 0.00 68 1011.9
20260502000011 13 105 1.6 4.8 0.00 0.00 0.00 67 1012.0
20260501234519 14 134 1.6 4.8 0.00 0.00 0.00 65 1012.1
20260501233022 15 120 3.2 8.0 0.00 0.00 0.00 63 1012.0
20260501231506 15 53 3.2 11.3 0.00 0.00 0.00 63 1012.0
20260501230012 16 90 3.2 11.3 0.00 0.00 0.00 61 1012.0
20260501224517 16 97 4.8 11.3 0.00 0.00 0.00 58 1011.9
20260501223020 17 112 4.8 14.5 0.00 0.00 0.00 54 1012.0
20260501221522 18 138 6.4 11.3 0.00 0.00 0.00 48 1011.9
20260501220010 19 212 3.2 11.3 0.00 0.00 0.00 41 1011.8
20260501214514 19 221 4.8 14.5 0.00 0.00 0.00 39 1011.8
20260501213019 20 151 1.6 8.0 0.00 0.00 0.00 41 1011.8
20260501211523 19 193 4.8 9.7 0.00 0.00 0.00 39 1011.8
20260501210032 19 133 3.2 9.7 0.00 0.00 0.00 38 1012.2
20260501204512 20 231 4.8 8.0 0.00 0.00 0.00 38 1012.3
20260501203017 20 183 1.6 11.3 0.00 0.00 0.00 36 1012.5
20260501201522 19 245 4.8 12.9 0.00 0.00 0.00 41 1012.7
20260501200025 19 119 3.2 9.7 0.00 0.00 0.00 41 1013.2
20260501194530 19 344 3.2 8.0 0.00 0.00 0.00 39 1013.2
20260501193018 18 348 4.8 11.3 0.00 0.00 0.00 38 1013.6
20260501191517 19 238 6.4 11.3 0.00 0.00 0.00 33 1013.8
20260501190025 19 262 3.2 14.5 0.00 0.00 0.00 35 1014.1
20260501184526 19 92 6.4 12.9 0.00 0.00 0.00 37 1014.2